Kamp-Lintfort Airport

EDLC · North Rhine-Westphalia, 德国

METAR的历史 EDLC · Kamp-Lintfort Airport

下面你可以看到过去几天的METARs。 选择年份以浏览从2007年开始的旧METAR。

2024年3月3日

时间 代码 天气 温度 能见度 天花板 METAR/SPECI
16:20
V
16 °C 10 km+ - 330° 330° 6 kt METAR EDLV 031520Z 33006KT 290V360 CAVOK 16/06 Q1001
15:50
V
16 °C 10 km+ - 320° 320° 5 kt METAR EDLV 031450Z 32005KT 280V360 CAVOK 16/07 Q1000
15:20
V
16 °C 10 km+ - 350° 350° 6 kt METAR EDLV 031420Z 35006KT 300V040 CAVOK 16/06 Q1000
14:50
V
16 °C 10 km+ - 010° 010° 5 kt METAR EDLV 031350Z 01005KT 320V040 CAVOK 16/07 Q1000
14:20
V
15 °C 10 km+ - 040° 040° 5 kt METAR EDLV 031320Z 04005KT 360V070 CAVOK 15/07 Q1000
13:50
V
15 °C 10 km+ - 010° 010° 4 kt METAR EDLV 031250Z 01004KT 300V100 CAVOK 15/06 Q1000
13:20
V
15 °C 10 km+ - Var Var 2 kt METAR EDLV 031220Z VRB02KT CAVOK 15/07 Q1000
12:50
V
15 °C 10 km+ - Var Var 2 kt METAR EDLV 031150Z VRB02KT CAVOK 15/06 Q1000
12:20
V
14 °C 10 km+ - 360° 360° 0 kt METAR EDLV 031120Z 00000KT CAVOK 14/07 Q1000
11:50
V
13 °C 10 km+ - 110° 110° 4 kt METAR EDLV 031050Z 11004KT CAVOK 13/06 Q1001
11:20
V
13 °C 10 km+ - 110° 110° 5 kt METAR EDLV 031020Z 11005KT 080V140 CAVOK 13/07 Q1001
10:50
V
12 °C 10 km+ - 120° 120° 8 kt METAR EDLV 030950Z 12008KT CAVOK 12/07 Q1001
10:20
V
12 °C 10 km+ - 120° 120° 9 kt METAR EDLV 030920Z 12009KT CAVOK 12/07 Q1001
09:50
V
11 °C 10 km+ - 100° 100° 7 kt METAR EDLV 030850Z 10007KT CAVOK 11/07 Q1001
09:20
V
11 °C 10 km+ - 090° 090° 6 kt METAR EDLV 030820Z 09006KT 050V120 CAVOK 11/07 Q1000
08:50
V
9 °C 10 km+ - 090° 090° 7 kt METAR EDLV 030750Z 09007KT CAVOK 09/07 Q1000
08:20
V
9 °C 10 km+ - 070° 070° 3 kt METAR EDLV 030720Z 07003KT 350V110 9999 -RA SCT048 09/06 Q1000
07:50
V
10 °C 10 km+ - 120° 120° 8 kt METAR EDLV 030650Z 12008KT 9999 -RA NSC 10/06 Q1000
07:20
V
9 °C 10 km+ - 110° 110° 6 kt METAR EDLV 030620Z 11006KT 9999 -RA NSC 09/06 Q1000
06:50
V
10 °C 10 km+ - 110° 110° 8 kt METAR EDLV 030550Z 11008KT 9999 -RA FEW034 10/05 Q1000
06:20
V
10 °C 10 km+ - 120° 120° 10 kt METAR EDLV 030520Z 12010KT CAVOK 10/05 Q1000
05:50
V
9 °C 10 km+ - 110° 110° 8 kt METAR EDLV 030450Z 11008KT CAVOK 09/05 Q0999
05:20
V
9 °C 10 km+ - 110° 110° 8 kt METAR EDLV 030420Z 11008KT CAVOK 09/05 Q0999
04:50
V
10 °C 10 km+ - 110° 110° 8 kt METAR EDLV 030350Z 11008KT CAVOK 10/05 Q0999

2024年3月2日

时间 代码 天气 温度 能见度 天花板 METAR/SPECI
23:50
V
12 °C 10 km+ - 110° 110° 9 kt METAR EDLV 022250Z 11009KT CAVOK 12/05 Q0999
23:20
V
12 °C 10 km+ - 120° 120° 10 kt METAR EDLV 022220Z 12010KT CAVOK 12/04 Q0999
22:50
V
12 °C 10 km+ - 120° 120° 10 kt METAR EDLV 022150Z 12010KT CAVOK 12/04 Q0999
22:20
V
11 °C 10 km+ - 120° 120° 10 kt METAR EDLV 022120Z 12010KT CAVOK 11/04 Q0999
21:50
V
11 °C 10 km+ - 120° 120° 11 kt METAR EDLV 022050Z 12011KT CAVOK 11/04 Q0999
21:20
V
12 °C 10 km+ - 120° 120° 11 kt METAR EDLV 022020Z 12011KT CAVOK 12/04 Q0999
20:50
V
12 °C 10 km+ - 110° 110° 10 kt METAR EDLV 021950Z 11010KT CAVOK 12/04 Q0999
20:20
V
13 °C 10 km+ - 130° 130° 12 kt METAR EDLV 021920Z 13012KT CAVOK 13/04 Q0999
19:50
V
13 °C 10 km+ - 130° 130° 13 kt METAR EDLV 021850Z 13013KT CAVOK 13/04 Q0999
19:20
V
13 °C 10 km+ - 130° 130° 14 kt METAR EDLV 021820Z 13014KT CAVOK 13/04 Q0999
18:50
V
13 °C 10 km+ - 130° 130° 13 kt METAR EDLV 021750Z 13013KT CAVOK 13/04 Q0999
18:20
V
13 °C 10 km+ - 120° 120° 12 kt METAR EDLV 021720Z 12012KT CAVOK 13/05 Q0999
17:50
V
13 °C 10 km+ - 130° 130° 11 kt METAR EDLV 021650Z 13011KT CAVOK 13/05 Q0999
17:20
V
13 °C 10 km+ - 130° 130° 12 kt METAR EDLV 021620Z 13012KT CAVOK 13/05 Q0999
16:50
V
14 °C 10 km+ - 130° 130° 10 kt METAR EDLV 021550Z 13010KT 9999 FEW047 14/05 Q0999
16:20
V
13 °C 10 km+ - 110° 110° 13 kt METAR EDLV 021520Z 11013KT CAVOK 13/05 Q0999
15:50
V
13 °C 10 km+ - 130° 130° 11 kt METAR EDLV 021450Z 13011KT CAVOK 13/05 Q0999
15:20
V
13 °C 10 km+ - 130° 130° 11 kt METAR EDLV 021420Z 13011KT 100V160 CAVOK 13/04 Q1000
14:50
V
13 °C 10 km+ - 130° 130° 11 kt METAR EDLV 021350Z 13011KT CAVOK 13/04 Q1000
14:20
V
12 °C 10 km+ - 130° 130° 11 kt METAR EDLV 021320Z 13011KT CAVOK 12/03 Q1000
13:50
V
13 °C 10 km+ - 140° 140° 10 kt METAR EDLV 021250Z 14010KT 9999 FEW039 13/03 Q1000
13:20
V
13 °C 10 km+ - 130° 130° 10 kt METAR EDLV 021220Z 13010KT 100V170 9999 FEW042 13/03 Q1001
12:50
V
12 °C 10 km+ - 140° 140° 9 kt METAR EDLV 021150Z 14009KT CAVOK 12/03 Q1001
12:20
V
12 °C 10 km+ - 160° 160° 10 kt METAR EDLV 021120Z 16010KT 140V200 CAVOK 12/03 Q1001
11:50
V
11 °C 10 km+ - 170° 170° 11 kt METAR EDLV 021050Z 17011KT 150V210 CAVOK 11/03 Q1001
11:20
V
11 °C 10 km+ - 180° 180° 11 kt METAR EDLV 021020Z 18011KT 150V210 9999 FEW033 11/03 Q1001
10:50
V
10 °C 10 km+ - 170° 170° 12 kt METAR EDLV 020950Z 17012KT 9999 FEW032 10/03 Q1002
10:20
V
10 °C 10 km+ - 170° 170° 13 kt METAR EDLV 020920Z 17013KT 9999 FEW030 10/03 Q1001
09:50
V
10 °C 10 km+ - 170° 170° 11 kt METAR EDLV 020850Z 17011KT CAVOK 10/03 Q1001
09:20
V
9 °C 10 km+ - 180° 180° 10 kt METAR EDLV 020820Z 18010KT CAVOK 09/04 Q1001
08:50
V
8 °C 10 km+ - 170° 170° 5 kt METAR EDLV 020750Z 17005KT 9999 FEW029 08/04 Q1001
08:20
V
7 °C 10 km+ - 180° 180° 5 kt METAR EDLV 020720Z 18005KT 9999 FEW029 07/04 Q1001
07:50
V
7 °C 10 km+ - 180° 180° 5 kt METAR EDLV 020650Z 18005KT CAVOK 07/03 Q1001
07:20
V
7 °C 10 km+ - 170° 170° 6 kt METAR EDLV 020620Z 17006KT CAVOK 07/03 Q1000
06:50
V
7 °C 10 km+ - 160° 160° 5 kt METAR EDLV 020550Z 16005KT CAVOK 07/04 Q1000
06:20
V
7 °C 10 km+ - 170° 170° 5 kt METAR EDLV 020520Z 17005KT 140V200 CAVOK 07/04 Q1000
05:50
V
8 °C 10 km+ - 180° 180° 7 kt METAR EDLV 020450Z 18007KT 9999 FEW030 08/04 Q1000
05:20
V
8 °C 10 km+ - 190° 190° 8 kt METAR EDLV 020420Z 19008KT 160V220 9999 FEW023 08/03 Q1000
04:50
V
8 °C 10 km+ 4.300 ft 200° 200° 10 kt METAR EDLV 020350Z AUTO 20010KT 150V220 9999 // FEW022/// BKN043/// OVC070/// 08/04 Q1000
04:20
V
8 °C 10 km+ 4.200 ft 180° 180° 8 kt METAR EDLV 020320Z AUTO 18008KT 9999 // OVC042/// 08/03 Q1000
03:50
V
8 °C 10 km+ 3.200 ft 180° 180° 8 kt METAR EDLV 020250Z AUTO 18008KT 9999 // BKN032/// OVC040/// 08/04 Q1000
03:20
V
8 °C 10 km+ 3.200 ft 200° 200° 9 kt METAR EDLV 020220Z AUTO 20009KT 160V220 9999 // OVC032/// 08/04 Q1000
02:50
V
9 °C 10 km+ 3.200 ft 220° 220° 14 kt METAR EDLV 020150Z AUTO 22014KT 9999 // OVC032/// 09/04 Q1000
02:20
V
9 °C 10 km+ 3.700 ft 140° 140° 10 kt METAR EDLV 020120Z AUTO 14010KT 9999 // OVC037/// 09/03 Q0999
01:50
V
8 °C 10 km+ 8.600 ft 130° 130° 12 kt METAR EDLV 020050Z AUTO 13012KT 9999 // FEW044/// BKN086/// OVC098/// 08/03 Q0999
01:20
V
8 °C 10 km+ 9.400 ft 130° 130° 11 kt METAR EDLV 020020Z AUTO 13011KT 9999 // BKN094/// 08/03 Q0999
00:50
V
8 °C 10 km+ - 130° 130° 13 kt METAR EDLV 012350Z AUTO 13013KT 9999 // SCT140/// 08/03 Q0999
00:20
V
8 °C 10 km+ 14.000 ft 130° 130° 14 kt METAR EDLV 012320Z AUTO 13014KT 9999 // BKN140/// 08/02 Q0999

2024年3月1日

时间 代码 天气 温度 能见度 天花板 METAR/SPECI
23:50
V
9 °C 10 km+ 14.000 ft 130° 130° 12 kt METAR EDLV 012250Z AUTO 13012KT 9999 // FEW110/// BKN140/// OVC160/// 09/03 Q0999
23:20
V
9 °C 10 km+ - 120° 120° 13 kt METAR EDLV 012220Z 12013KT CAVOK 09/03 Q0999
22:50
V
9 °C 10 km+ - 130° 130° 12 kt METAR EDLV 012150Z 13012KT CAVOK 09/03 Q1000
22:20
V
9 °C 10 km+ - 130° 130° 13 kt METAR EDLV 012120Z 13013KT CAVOK 09/03 Q1000
21:50
V
8 °C 10 km+ - 120° 120° 11 kt METAR EDLV 012050Z 12011KT CAVOK 08/02 Q1000
21:20
V
9 °C 10 km+ - 120° 120° 11 kt METAR EDLV 012020Z 12011KT CAVOK 09/02 Q1000
20:50
V
9 °C 10 km+ - 130° 130° 9 kt METAR EDLV 011950Z 13009KT CAVOK 09/02 Q1001
20:20
V
9 °C 10 km+ - 130° 130° 9 kt METAR EDLV 011920Z 13009KT 9999 FEW048 09/02 Q1001
19:50
V
9 °C 10 km+ 4.500 ft 140° 140° 8 kt METAR EDLV 011850Z 14008KT 9999 BKN045 09/02 Q1001
19:20
V
10 °C 10 km+ - 150° 150° 9 kt METAR EDLV 011820Z 15009KT CAVOK 10/03 Q1001
18:50
V
10 °C 10 km+ - 160° 160° 8 kt METAR EDLV 011750Z 16008KT CAVOK 10/03 Q1001
18:20
V
10 °C 10 km+ - 170° 170° 9 kt METAR EDLV 011720Z 17009KT CAVOK 10/03 Q1001
17:50
V
11 °C 10 km+ - 170° 170° 11 kt METAR EDLV 011650Z 17011KT CAVOK 11/02 Q1001
17:20
V
11 °C 10 km+ - 170° 170° 12 kt METAR EDLV 011620Z 17012KT CAVOK 11/02 Q1001
16:50
V
11 °C 10 km+ - 170° 170° 11 - 23 kt METAR EDLV 011550Z 17011G23KT 140V200 9999 SCT045 11/02 Q1001
16:20
V
11 °C 10 km+ 4.600 ft 160° 160° 14 kt METAR EDLV 011520Z 16014KT 9999 BKN046 11/01 Q1001
15:50
V
11 °C 10 km+ 4.600 ft 160° 160° 14 kt METAR EDLV 011450Z 16014KT 9999 OVC046 11/01 Q1001
15:20
V
11 °C 10 km+ 4.700 ft 160° 160° 13 kt METAR EDLV 011420Z 16013KT 9999 OVC047 11/02 Q1002
14:50
V
11 °C 10 km+ 4.800 ft 160° 160° 13 kt METAR EDLV 011350Z 16013KT 9999 BKN048 11/02 Q1002
14:20
V
10 °C 10 km+ - 150° 150° 15 kt METAR EDLV 011320Z 15015KT CAVOK 10/03 Q1002
13:50
V
10 °C 10 km+ - 160° 160° 14 kt METAR EDLV 011250Z 16014KT 120V180 9999 FEW034 10/03 Q1002
13:20
V
10 °C 10 km+ - 160° 160° 14 kt METAR EDLV 011220Z 16014KT 9999 FEW031 10/03 Q1002
12:50
V
10 °C 10 km+ - 170° 170° 15 kt METAR EDLV 011150Z 17015KT 140V200 9999 FEW028 10/03 Q1003
12:20
M
9 °C 10 km+ 2.700 ft 170° 170° 12 kt METAR EDLV 011120Z 17012KT 140V200 9999 BKN027 BKN031 09/03 Q1003
11:50
M
9 °C 10 km+ 2.600 ft 190° 190° 10 kt METAR EDLV 011050Z 19010KT 9999 BKN026 09/03 Q1004
11:20
V
9 °C 10 km+ - 170° 170° 10 kt METAR EDLV 011020Z 17010KT 9999 FEW021 SCT024 09/03 Q1004
10:50
V
8 °C 10 km+ - 200° 200° 11 kt METAR EDLV 010950Z 20011KT 9999 FEW017 SCT020 08/04 Q1004
10:20
M
8 °C 10 km+ 1.500 ft 200° 200° 10 kt METAR EDLV 010920Z 20010KT 160V220 9999 BKN015 08/05 Q1004
09:50
V
7 °C 10 km+ - 200° 200° 9 kt METAR EDLV 010850Z 20009KT 170V230 9999 FEW012 07/04 Q1004
09:20
M
7 °C 10 km+ 1.200 ft 200° 200° 9 kt METAR EDLV 010820Z 20009KT 170V240 9999 SCT010 BKN012 OVC024 07/05 Q1004
08:50
M
7 °C 10 km+ 1.900 ft 210° 210° 8 kt METAR EDLV 010750Z 21008KT 9999 FEW010 OVC019 07/05 Q1004
08:20
M
7 °C 10 km+ 1.100 ft 220° 220° 7 kt METAR EDLV 010720Z 22007KT 9999 BKN011 OVC020 07/05 Q1003
07:50
M
7 °C 10 km+ 2.200 ft 230° 230° 7 kt METAR EDLV 010650Z 23007KT 9999 FEW012 SCT014 OVC022 07/05 Q1003
07:20
M
7 °C 10 km+ 1.800 ft 240° 240° 7 kt METAR EDLV 010620Z 24007KT 9999 FEW011 SCT013 OVC018 07/05 Q1003
06:50
V
7 °C 10 km+ 3.400 ft 240° 240° 9 kt METAR EDLV 010550Z 24009KT 210V270 9999 SCT011 SCT030 OVC034 07/05 Q1002